Simultaneous Nadir Overpasses (SNOs) Predictions

Prediction of SNOs between METOP-C and LANDSAT-8 Satellite Orbit:

Table of predicted SNOs for the next 14.0 days since TLE Epoch: 2/13/2021
Index Date (METOP-C) Time (METOP-C) Lat,Lon (METOP-C) SZA (METOP-C ) Date (LANDSAT-8) Time (LANDSAT-8) Lat,Lon (LANDSAT-8) SZA (LANDSAT-8 ) Distance(km) Time Diff (sec)
1 02/15/2021 06:23:21 -81.08, -56.82 84.77 02/15/2021 06:23:33 -81.08, -56.83 84.77 0.25 12
2 02/15/2021 07:13:59 81.10, 111.16 95.30 02/15/2021 07:12:58 81.11, 111.27 95.29 2.20 61
3 02/18/2021 01:57:43 -81.09, 9.82 85.71 02/18/2021 01:57:47 -81.09, 9.75 85.72 1.32 4
4 02/18/2021 02:48:22 81.10, 177.40 94.31 02/18/2021 02:47:13 81.10, 177.47 94.28 1.22 69
5 02/20/2021 20:41:25 81.06, -92.00 93.20 02/20/2021 20:42:35 81.05, -92.03 93.22 0.70 70
6 02/20/2021 21:32:04 -81.10, 76.45 86.69 02/20/2021 21:32:00 -81.10, 76.29 86.70 2.61 4
7 02/23/2021 16:15:47 81.06, -25.41 92.21 02/23/2021 16:16:49 81.06, -25.54 92.21 2.45 62
8 02/23/2021 17:06:28 -81.08, 142.30 87.77 02/23/2021 17:06:15 -81.08, 142.45 87.76 2.51 13
9 02/26/2021 11:50:10 81.05, 40.80 91.15 02/26/2021 11:51:03 81.06, 40.92 91.18 2.04 53



Historial Predications of SNOs between METOP-C and LANDSAT-8
